Preview of NWS' New Version of Forecast
This preview is not operational and should not be used for support decisions.

Regional Weather Roundup (RWR)

Issued by National Weather Service (NWS)

                            
000
ASUS43 KDTX 181701
RWRMI 
MICHIGAN HOURLY REGIONAL WEATHER ROUNDUP
NATIONAL WEATHER SERVICE DETROIT/PONTIAC MI
100 PM EDT TUE JUN 18 2019

NOTE: "FAIR" INDICATES FEW OR NO CLOUDS BELOW 12,000 FEET WITH NO
SIGNIFICANT WEATHER AND/OR OBSTRUCTION TO VISIBILITY.

MIZ047>049-052>055-059>063-066>070-074>076-081>083-181800-
SOUTHEAST LOWER MICHIGAN
  
CITY           SKY/WX    TMP DP  RH WIND       PRES   REMARKS
ADRIAN         FAIR      73  59  61 VRB5      29.97F                  
ALMA           FAIR      76  52  44 NE3       29.96F                  
ANN ARBOR      FAIR      73  62  68 VRB3      29.96S                  
BAD AXE        FAIR      73  54  50 CALM      29.95F                  
DETROIT CITY   PTSUNNY   73  58  59 VRB3      29.97S                  
DETROIT        CLOUDY    73  58  59 CALM      29.96F                  
FLINT          CLOUDY    76  58  53 VRB3      29.96S                  
HILLSDALE      CLOUDY    72  60  64 S6        29.97S                  
HOWELL         CLOUDY    73  58  58 W3        29.96F                  

CITY           SKY/WX    TMP DP  RH WIND       PRES   REMARKS
JACKSON        PTSUNNY   74  62  66 CALM      29.96S                  
LAMBERTVILLE   PTSUNNY   74  61  63 E5        29.96S                  
LANSING        CLOUDY    75  61  61 CALM      29.96F                  
LAPEER         PTSUNNY   73  60  62 SW3       29.97F                  
MASON          PTSUNNY   73  62  67 N10       29.96F                  
PONTIAC        CLOUDY    71  59  65 CALM      29.96S                  
PORT HOPE        N/A     59  52  77 E5        29.96F                  
PORT HURON     FAIR      73  55  53 CALM      29.97S                  
TRI CITIES     FAIR      74  57  55 VRB3      29.96F                  
MIDLAND        FAIR      77  57  50 SW5       29.95F                  
TROY           CLOUDY    72  55  54 CALM      29.99S                  
SAGINAW HB     FAIR      75  59  57 CALM      29.96S                  
$$
MIZ043>046-050>051-056>058-064>065-071>073-077>080-181800-
SOUTHWEST LOWER MICHIGAN
  
CITY           SKY/WX    TMP DP  RH WIND       PRES   REMARKS
BATTLE CREEK   PTSUNNY   75  62  64 NE3       29.96F                  
BENTON HARBOR  FAIR      66  59  78 NW9       29.97R                  
BIG RAPIDS     PTSUNNY   73  59  62 SW3       29.95F                  
COLDWATER      PTSUNNY   74  62  65 CALM      29.96S                  
FREMONT        CLOUDY    71  56  60 CALM      29.96S                  
HOLLAND        PTSUNNY   73  60  63 CALM      29.96F                  
GRAND RAPIDS   PTSUNNY   73  59  61 CALM      29.96F                  
IONIA          CLOUDY    72  56  57 CALM      29.95F                  
KALAMAZOO      FAIR      76  60  57 CALM      29.95F                  
MARSHALL       PTSUNNY   74  63  70 CALM      29.95F                  
MUSKEGON       PTSUNNY   74  57  55 W7        29.96F                  
SOUTH HAVEN    FAIR      70  61  73 N9        29.97S                  
$$
MIZ016>042-181800-
NORTHERN LOWER MICHIGAN
  
CITY           SKY/WX    TMP DP  RH WIND       PRES   REMARKS
ALPENA         FAIR      72  49  44 E9        29.94F                  
BEAVER ISLAND  FAIR      70  43  37 W5        29.95S                  
BELLAIRE       CLOUDY    72  45  37 W3        29.95S                  
CADILLAC       CLOUDY    74  60  61 S6        29.95F                  
CHARLEVOIX     PTSUNNY   63  50  62 NW8       29.99S                  
FRANKFORT      CLOUDY    67  54  63 W5        29.95F                  
GAYLORD        CLOUDY    68  55  63 VRB5      29.95S                  
HARBOR SPRINGS PTSUNNY   61  49  66 SW5       29.96S                  
HOUGHTON LAKE  FAIR      73  51  46 CALM      29.96S                  
MANISTEE       FAIR      70  59  68 S8        29.94F                  
OSCODA         FAIR      69  50  51 E8        29.95F                  
PELLSTON       FAIR      73  51  46 VRB3      29.95S                  
TRAVERSE CITY  PTSUNNY   73  52  47 VRB3      29.93S                  
$$
MIZ007>008-015-181800-
EASTERN UPPER MICHIGAN
  
CITY           SKY/WX    TMP DP  RH WIND       PRES   REMARKS
KINROSS        FAIR      71  53  52 SE8       29.93F                  
MACKINAC ISLAN FAIR      65  53  66 W3        29.94S                  
NEWBERRY       FAIR      71  46  40 SW7       29.92S                  
S. S. MARIE    FAIR      73  53  49 SE7       29.92F                  
MUNISING         N/A     56  51  84 NE8       29.90F                  
$$
MIZ004>006-011>014-085-181800-
CENTRAL UPPER MICHIGAN
  
CITY           SKY/WX    TMP DP  RH WIND       PRES   REMARKS
ESCANABA       PTSUNNY   64  56  75 SE9       29.93F                  
MENOMINEE      FAIR      69  60  73 SE5       29.93F                  
SAWYER-GWINN   PTSUNNY   68  57  68 SW6       29.90F                  
$$
MIZ001>003-009>011-084-181800-
WESTERN UPPER MICHIGAN
  
CITY           SKY/WX    TMP DP  RH WIND       PRES   REMARKS
IRON MOUNTAIN  PTSUNNY   71  58  63 SW8       29.89F                  
HOUGHTON       FAIR      64  50  60 VRB6      29.93S                  
COPPER HARBOR    N/A     50  46  86 CALM      29.95R                  
IRONWOOD       CLOUDY    56  52  86 W7        29.98R                  
$$

ABBREVIATIONS USED IN REMARKS
   TC - TEMPERATURE IN CELSIUS
  WCI - WIND CHILL INDEX
   HX - HEAT INDEX
  VSB - VISIBILITY